Location: Arrakis Observatory
(44.1122°N, 95.7153°W)
Time: 17:16:21
(UTC-05:00)

Iridium 35 - Visible Passes

Search period start: 26 June 2017 00:00
Search period end: 06 July 2017 00:00
Orbit: 776 x 779 km, 86.4° (Epoch: 26 June)

Date Brightness Start Highest point End Pass type
(mag) Time Alt. Az. Time Alt. Az. Time Alt. Az.
26 Jun 6.5 03:23:55 10° SE 03:28:30 32° E 03:33:07 10° NNE visible
27 Jun 7.3 02:51:44 10° ESE 02:55:16 19° ENE 02:58:48 10° NE visible
27 Jun 5.2 04:30:35 11° SSW 04:35:30 55° W 04:40:38 10° N visible
28 Jun 7.8 02:21:45 10° ENE 02:22:08 10° ENE 02:22:31 10° ENE visible
28 Jun 5.1 03:57:25 14° S 04:01:56 83° E 04:07:11 10° N visible
29 Jun 5.9 03:24:14 14° SSE 03:28:30 46° E 03:33:28 10° NNE visible
29 Jun 6.4 05:05:25 10° SW 05:09:27 22° WNW 05:13:31 10° NNW visible
30 Jun 6.8 02:51:03 11° SE 02:55:11 26° E 02:59:27 10° NNE visible
30 Jun 5.7 04:31:31 14° SW 04:35:41 39° W 04:40:34 10° NNW visible
01 Jul 7.4 02:19:09 10° ESE 02:21:59 15° ENE 02:24:49 10° NE visible
01 Jul 5.0 03:58:19 19° SSW 04:02:03 70° W 04:07:17 10° N visible
02 Jul 5.3 03:25:06 21° SSE 03:28:33 66° E 03:33:43 10° N visible
02 Jul 6.8 05:06:37 10° WSW 05:09:47 16° WNW 05:12:58 10° NW visible
03 Jul 6.2 02:51:52 18° SE 02:55:09 37° E 02:59:54 10° NNE visible
03 Jul 6.2 04:32:21 14° SW 04:35:56 28° WNW 04:40:24 10° NNW visible
04 Jul 7.0 02:18:38 12° ESE 02:21:53 21° E 02:25:42 10° NNE visible
04 Jul 5.4 03:59:06 22° SSW 04:02:13 49° W 04:07:17 10° N visible
05 Jul 7.5 01:47:01 10° E 01:48:44 12° ENE 01:50:29 10° NE visible
05 Jul 5.0 03:25:51 29° S 03:28:38 87° W 03:33:53 10° N visible
05 Jul 7.1 05:08:39 10° W 05:10:09 11° WNW 05:11:41 10° NW visible
